Location: Maiden
(35.5760°N, 81.2120°W)
Time: 02:30:53
(UTC-05:00)

Tiangong 2 - Visible Passes

Search period start: 21 February 2018 00:00
Search period end: 03 March 2018 00:00
Orbit: 384 x 388 km, 42.8° (Epoch: 20 February)

Date Brightness Start Highest point End Pass type
(mag) Time Alt. Az. Time Alt. Az. Time Alt. Az.
21 Feb 1.3 19:00:38 10° NW 19:03:45 52° NNE 19:05:47 19° E visible
21 Feb 4.6 20:37:49 10° W 20:38:04 11° W 20:38:04 11° W visible
22 Feb 2.0 19:38:28 10° WNW 19:41:31 43° SSW 19:42:17 35° S visible
23 Feb 1.1 18:39:23 10° WNW 18:42:35 85° SSW 18:45:45 10° ESE visible
23 Feb 4.2 20:17:55 10° WSW 20:18:56 11° SW 20:18:56 11° SW visible
24 Feb 3.4 19:17:39 10° W 19:20:10 22° SW 19:22:40 10° SSE visible
26 Feb 4.3 18:57:48 10° WSW 18:58:41 11° SW 18:59:34 10° SSW visible
